Location: San Gennaro Vesuviano
(40.8833°N, 14.5333°E)
Time: 21:55:40
(UTC+00:00)

Cosmos 1980 - Pass Details

Date: 22 April 2021
Orbit: 838 x 848 km, 71.0° (Epoch: 10 May)

Event Time Altitude Azimuth Distance (km) Brightness Sun altitude
Rises 19:33:03 0° 334° (NNW) 3,417 8.0 -18.4°
Reaches altitude 10° 19:35:31 10° 333° (NNW) 2,479 7.1 -18.7°
Maximum altitude 19:41:11 74° 249° (WSW) 882 3.8 -19.6°
Enters shadow 19:44:14 28° 170° (S) 1,528 4.6 -20.0°
